Lorain / Elyria, OH

12:42 AM EDT on March 30, 2017 (GMT -0400)
Lorain County Regional

Weather History for KLPR - February, 2013

Change the Weather History Date:

Tuesday, February 26, 2013

  Actual Average (KCLE) Record (KCLE)
Temperature  
Mean Temperature 34 °F -  
Max Temperature 39 °F 37 °F 74 °F (2000)
Min Temperature 28 °F 22 °F -15 °F (1963)
Degree Days  
Heating Degree Days 32    
Moisture  
Dew Point 30 °F    
Average Humidity 82    
Maximum Humidity 93    
Minimum Humidity 61    
Precipitation  
Precipitation 0.86 in - - ()
Sea Level Pressure  
Sea Level Pressure 29.74 in    
Wind  
Wind Speed 11 mph (ESE)    
Max Wind Speed 20 mph    
Max Gust Speed 29 mph    
Visibility 7 miles    
Events Rain    
Averages and records for this station are not official NWS values.
T = Trace of Precipitation, MM = Missing Value Source: NWS Daily Summary

Daily Weather History Graph

Daily Weather History Graph

Search for Another Location

Airport or City:

Trip Planner

Search our weather history database for the weather conditions in past years. The results will help you decide how hot, cold, wet, or windy it might be!

Date:

Astronomy

Feb. 26, 2013 Rise Set
Actual Time 7:07 AM EST 6:16 PM EST
Civil Twilight 6:39 AM EST 6:44 PM EST
Nautical Twilight 6:07 AM EST 7:16 PM EST
Astronomical Twilight 5:35 AM EST 7:48 PM EST
Moon 7:33 PM EST (2/26) 7:08 AM EST (2/26)
Length of Visible Light 12h 04m
Length of Day
11h 08m
Full, 99% of the Moon is Illuminated
Feb 26
Full
Mar 4
Last Quarter
Mar 11
New
Mar 19
First Quarter
Mar 27
Full

Hourly Weather History & Observations

Time (EST) Temp. Windchill Dew Point Humidity Pressure Visibility Wind Dir Wind Speed Gust Speed Precip Events Conditions
12:53 AM 28.9 °F 21.1 °F 24.1 °F 82% 30.07 in 10.0 mi ENE 8.1 mph - N/A   Clear
1:53 AM 28.9 °F 21.9 °F 23.0 °F 78% 30.04 in 10.0 mi East 6.9 mph - N/A   Clear
2:53 AM 28.0 °F 20.8 °F 23.0 °F 81% 30.05 in 10.0 mi ENE 6.9 mph - N/A   Clear
3:53 AM 28.0 °F 19.3 °F 23.0 °F 81% 30.01 in 10.0 mi ENE 9.2 mph - N/A   Clear
4:53 AM 28.9 °F 20.4 °F 23.0 °F 78% 29.97 in 10.0 mi East 9.2 mph - N/A   Clear
5:53 AM 28.9 °F 21.1 °F 24.1 °F 82% 29.96 in 10.0 mi East 8.1 mph - N/A   Clear
6:53 AM 30.0 °F 22.4 °F 24.1 °F 79% 29.94 in 10.0 mi East 8.1 mph - N/A   Clear
7:53 AM 32.0 °F 24.2 °F 24.1 °F 73% 29.93 in 10.0 mi East 9.2 mph - N/A   Clear
8:53 AM 35.1 °F 26.9 °F 23.0 °F 61% 29.90 in 10.0 mi ESE 11.5 mph - N/A   Clear
9:53 AM 36.0 °F 27.1 °F 24.1 °F 62% 29.87 in 10.0 mi East 13.8 mph - N/A   Mostly Cloudy
10:53 AM 36.0 °F 28.0 °F 27.0 °F 70% 29.84 in 5.0 mi ESE 11.5 mph - 0.01 in Rain Light Rain
11:53 AM 36.0 °F 28.0 °F 28.9 °F 76% 29.79 in 6.0 mi ESE 11.5 mph - 0.02 in Rain Light Rain
12:53 PM 36.0 °F 27.5 °F 30.9 °F 82% 29.74 in 4.0 mi East 12.7 mph - 0.04 in Rain Rain
1:53 PM 37.0 °F 28.5 °F 32.0 °F 82% 29.67 in 4.0 mi ESE 13.8 mph - 0.08 in Rain Light Rain
2:43 PM 37.4 °F 29.3 °F 33.8 °F 87% 29.62 in 3.0 mi ESE 12.7 mph - 0.10 in Rain Rain
2:53 PM 37.0 °F 28.9 °F 33.1 °F 86% 29.63 in 4.0 mi ESE 12.7 mph - 0.12 in Rain Light Rain
3:29 PM 37.4 °F 28.5 °F 33.8 °F 87% 29.63 in 2.5 mi SE 15.0 mph 21.9 mph 0.10 in Rain Rain
3:53 PM 37.0 °F 28.5 °F 34.0 °F 89% 29.65 in 2.5 mi SE 13.8 mph 23.0 mph 0.21 in Rain Rain
4:16 PM 37.4 °F 27.8 °F 33.8 °F 87% 29.61 in 3.0 mi SE 17.3 mph 24.2 mph 0.09 in Rain Rain
4:29 PM 37.4 °F 27.2 °F 33.8 °F 87% 29.60 in 4.0 mi SE 19.6 mph 27.6 mph 0.12 in Rain Rain
4:43 PM 37.4 °F 27.8 °F 33.8 °F 87% 29.59 in 5.0 mi SE 17.3 mph 28.8 mph 0.13 in Rain Light Rain
4:53 PM 37.0 °F 27.0 °F 34.0 °F 89% 29.61 in 5.0 mi SE 18.4 mph - 0.14 in Rain Light Rain
5:53 PM 37.0 °F 28.1 °F 35.1 °F 93% 29.57 in 4.0 mi SE 15.0 mph 26.5 mph 0.03 in Rain Rain
6:53 PM 37.9 °F 29.6 °F 35.1 °F 89% 29.55 in 8.0 mi SE 13.8 mph 28.8 mph 0.12 in Rain Light Rain
7:53 PM 39.0 °F 30.3 °F 35.1 °F 86% 29.55 in 9.0 mi SE 16.1 mph 26.5 mph 0.02 in Rain Light Rain
8:53 PM 39.0 °F 30.6 °F 35.1 °F 86% 29.53 in 10.0 mi SE 15.0 mph 27.6 mph 0.01 in   Overcast
9:53 PM 39.0 °F 30.6 °F 35.1 °F 86% 29.52 in 10.0 mi SSE 15.0 mph 25.3 mph 0.01 in   Overcast
10:53 PM 39.9 °F 31.8 °F 36.0 °F 86% 29.51 in 10.0 mi SSE 15.0 mph 21.9 mph 0.00 in Rain Light Rain
11:53 PM 39.9 °F 31.8 °F 36.0 °F 86% 29.49 in 10.0 mi SSE 15.0 mph 25.3 mph 0.05 in   Overcast